Time,TemperatureF,DewpointF,PressureIn,WindDirection,WindDirectionDegrees,WindSpeedMPH,WindSpeedGustMPH,Humidity,HourlyPrecipIn,Conditions,Clouds,dailyrainin,SoftwareType,DateUTC
2015-09-01 00:00:00,70.0,67.6,29.97,SE,125,0.0,0.0,92,0.00,,,0.00,VWS V15.00,2015-09-01 05:00:00,
2015-09-01 00:10:00,69.8,67.4,29.97,SE,125,0.0,0.0,92,0.00,,,0.00,VWS V15.00,2015-09-01 05:10:00,
2015-09-01 00:15:00,69.8,67.4,29.97,SE,125,0.0,0.0,92,0.00,,,0.00,VWS V15.00,2015-09-01 05:15:00,
2015-09-01 00:20:00,69.7,67.3,29.97,SE,125,0.0,0.0,92,0.00,,,0.00,VWS V15.00,2015-09-01 05:20:00,
2015-09-01 00:25:00,69.6,67.2,29.97,SE,125,0.0,0.0,92,0.00,,,0.00,VWS V15.00,2015-09-01 05:25:00,
2015-09-01 00:30:00,69.5,67.4,29.96,SE,125,0.0,0.0,93,0.00,,,0.00,VWS V15.00,2015-09-01 05:30:00,
2015-09-01 00:35:00,69.4,67.3,29.96,SE,125,0.0,0.0,93,0.00,,,0.00,VWS V15.00,2015-09-01 05:35:00,
2015-09-01 00:40:00,69.4,67.3,29.96,SE,125,0.0,0.0,93,0.00,,,0.00,VWS V15.00,2015-09-01 05:40:00,
2015-09-01 00:50:00,69.3,67.2,29.97,SE,125,0.0,0.0,93,0.00,,,0.00,VWS V15.00,2015-09-01 05:50:00,
2015-09-01 00:55:00,69.2,67.1,29.97,SE,125,0.0,0.0,93,0.00,,,0.00,VWS V15.00,2015-09-01 05:55:00,
2015-09-01 01:05:00,69.0,66.9,29.97,SE,125,0.0,0.0,93,0.00,,,0.00,VWS V15.00,2015-09-01 06:05:00,
2015-09-01 01:10:00,69.0,66.9,29.97,SE,125,0.0,0.0,93,0.00,,,0.00,VWS V15.00,2015-09-01 06:10:00,
2015-09-01 01:15:00,68.9,66.8,29.97,SE,125,0.0,0.0,93,0.00,,,0.00,VWS V15.00,2015-09-01 06:15:00,
2015-09-01 01:20:00,68.8,66.7,29.97,SE,125,0.0,0.0,93,0.00,,,0.00,VWS V15.00,2015-09-01 06:20:00,
2015-09-01 01:25:00,68.8,66.7,29.97,SE,125,0.0,0.0,93,0.00,,,0.00,VWS V15.00,2015-09-01 06:25:00,
2015-09-01 01:35:00,68.6,66.5,29.97,SE,125,0.0,0.0,93,0.00,,,0.00,VWS V15.00,2015-09-01 06:35:00,
2015-09-01 01:45:00,68.5,66.4,29.97,SE,125,0.0,0.0,93,0.00,,,0.00,VWS V15.00,2015-09-01 06:45:00,
2015-09-01 01:50:00,68.5,66.4,29.97,SE,125,0.0,0.0,93,0.00,,,0.00,VWS V15.00,2015-09-01 06:50:00,
2015-09-01 02:00:00,68.5,66.4,29.97,SE,125,0.0,0.0,93,0.00,,,0.00,VWS V15.00,2015-09-01 07:00:00,
2015-09-01 02:10:00,68.3,66.2,29.97,SE,125,0.0,0.0,93,0.00,,,0.00,VWS V15.00,2015-09-01 07:10:00,
2015-09-01 02:20:00,68.1,66.3,29.97,SE,125,0.0,0.0,94,0.00,,,0.00,VWS V15.00,2015-09-01 07:20:00,
2015-09-01 02:25:00,68.1,66.3,29.97,SE,125,0.0,0.0,94,0.00,,,0.00,VWS V15.00,2015-09-01 07:25:00,
2015-09-01 02:30:00,68.1,66.3,29.97,SE,125,0.0,0.0,94,0.00,,,0.00,VWS V15.00,2015-09-01 07:30:00,
2015-09-01 02:35:00,68.1,66.3,29.97,SE,125,0.0,0.0,94,0.00,,,0.00,VWS V15.00,2015-09-01 07:35:00,
2015-09-01 02:40:00,68.1,66.3,29.97,SE,125,0.0,0.0,94,0.00,,,0.00,VWS V15.00,2015-09-01 07:40:00,
2015-09-01 02:45:00,68.2,66.4,29.97,SE,125,0.0,0.0,94,0.00,,,0.00,VWS V15.00,2015-09-01 07:45:00,
2015-09-01 02:55:00,68.4,66.6,29.97,SE,125,0.0,0.0,94,0.00,,,0.00,VWS V15.00,2015-09-01 07:55:00,
2015-09-01 03:00:00,68.5,66.4,29.97,SE,125,0.0,0.0,93,0.00,,,0.00,VWS V15.00,2015-09-01 08:00:00,
2015-09-01 03:05:00,68.8,66.7,29.97,SE,125,0.0,0.0,93,0.00,,,0.00,VWS V15.00,2015-09-01 08:05:00,
2015-09-01 03:10:00,69.0,66.9,29.97,SE,125,0.0,0.0,93,0.00,,,0.00,VWS V15.00,2015-09-01 08:10:00,
2015-09-01 03:15:00,69.0,66.6,29.97,SE,125,0.0,0.0,92,0.00,,,0.00,VWS V15.00,2015-09-01 08:15:00,
2015-09-01 03:20:00,69.0,66.6,29.97,SE,125,0.0,0.0,92,0.00,,,0.00,VWS V15.00,2015-09-01 08:20:00,
2015-09-01 03:30:00,68.8,66.4,29.97,SE,125,0.0,0.0,92,0.00,,,0.00,VWS V15.00,2015-09-01 08:30:00,
2015-09-01 03:35:00,68.6,66.2,29.97,SE,125,0.0,0.0,92,0.00,,,0.00,VWS V15.00,2015-09-01 08:35:00,
2015-09-01 03:45:00,68.4,66.3,29.97,SE,125,0.0,0.0,93,0.00,,,0.00,VWS V15.00,2015-09-01 08:45:00,
2015-09-01 03:50:00,68.3,66.2,29.97,SE,125,0.0,0.0,93,0.00,,,0.00,VWS V15.00,2015-09-01 08:50:00,
2015-09-01 03:55:00,68.2,66.1,29.97,SE,125,0.0,0.0,93,0.00,,,0.00,VWS V15.00,2015-09-01 08:55:00,
2015-09-01 04:00:00,68.0,65.9,29.97,SE,125,0.0,0.0,93,0.00,,,0.00,VWS V15.00,2015-09-01 09:00:00,
2015-09-01 04:05:00,67.9,65.8,29.97,SE,125,0.0,0.0,93,0.00,,,0.00,VWS V15.00,2015-09-01 09:05:00,
2015-09-01 04:10:00,67.7,65.6,29.97,SE,125,0.0,0.0,93,0.00,,,0.00,VWS V15.00,2015-09-01 09:10:00,
2015-09-01 04:15:00,67.6,65.5,29.98,SE,125,0.0,0.0,93,0.00,,,0.00,VWS V15.00,2015-09-01 09:15:00,
2015-09-01 04:20:00,67.7,65.9,29.98,SE,125,0.0,0.0,94,0.00,,,0.00,VWS V15.00,2015-09-01 09:20:00,
2015-09-01 04:25:00,67.6,65.8,29.98,SE,125,0.0,0.0,94,0.00,,,0.00,VWS V15.00,2015-09-01 09:25:00,
2015-09-01 04:30:00,67.5,65.7,29.98,SE,125,0.0,0.0,94,0.00,,,0.00,VWS V15.00,2015-09-01 09:30:00,
2015-09-01 04:40:00,67.3,65.5,29.98,SE,125,0.0,0.0,94,0.00,,,0.00,VWS V15.00,2015-09-01 09:40:00,
2015-09-01 04:45:00,67.2,65.4,29.98,SE,125,0.0,0.0,94,0.00,,,0.00,VWS V15.00,2015-09-01 09:45:00,
2015-09-01 04:50:00,67.1,65.3,29.98,SE,125,0.0,0.0,94,0.00,,,0.00,VWS V15.00,2015-09-01 09:50:00,
2015-09-01 05:00:00,67.2,65.4,29.98,SE,125,0.0,0.0,94,0.00,,,0.00,VWS V15.00,2015-09-01 10:00:00,
2015-09-01 05:05:00,67.3,65.5,29.98,SE,125,0.0,0.0,94,0.00,,,0.00,VWS V15.00,2015-09-01 10:05:00,
2015-09-01 05:10:00,67.4,65.6,29.98,SE,125,0.0,0.0,94,0.00,,,0.00,VWS V15.00,2015-09-01 10:10:00,
2015-09-01 05:15:00,67.3,65.5,29.98,SE,125,0.0,0.0,94,0.00,,,0.00,VWS V15.00,2015-09-01 10:15:00,
2015-09-01 05:20:00,67.2,65.4,29.98,SE,125,0.0,0.0,94,0.00,,,0.00,VWS V15.00,2015-09-01 10:20:00,
2015-09-01 05:30:00,67.0,65.2,29.99,SE,125,0.0,0.0,94,0.00,,,0.00,VWS V15.00,2015-09-01 10:30:00,
2015-09-01 05:35:00,66.9,65.4,29.99,SE,125,0.0,0.0,95,0.00,,,0.00,VWS V15.00,2015-09-01 10:35:00,
2015-09-01 05:40:00,67.0,65.5,29.99,SE,125,0.0,0.0,95,0.00,,,0.00,VWS V15.00,2015-09-01 10:40:00,
2015-09-01 05:45:00,66.9,65.4,29.99,SE,125,0.0,0.0,95,0.00,,,0.00,VWS V15.00,2015-09-01 10:45:00,
2015-09-01 05:55:00,66.9,65.4,29.99,SE,125,0.0,0.0,95,0.00,,,0.00,VWS V15.00,2015-09-01 10:55:00,
2015-09-01 06:00:00,67.0,65.5,29.99,SE,125,0.0,0.0,95,0.00,,,0.00,VWS V15.00,2015-09-01 11:00:00,
2015-09-01 06:05:00,66.9,65.4,29.99,SE,125,0.0,0.0,95,0.00,,,0.00,VWS V15.00,2015-09-01 11:05:00,
2015-09-01 06:10:00,66.8,65.3,29.99,SE,125,0.0,0.0,95,0.00,,,0.00,VWS V15.00,2015-09-01 11:10:00,
2015-09-01 06:15:00,66.7,65.2,29.99,SE,125,0.0,0.0,95,0.00,,,0.00,VWS V15.00,2015-09-01 11:15:00,
2015-09-01 06:20:00,66.6,64.8,29.99,SE,125,0.0,0.0,94,0.00,,,0.00,VWS V15.00,2015-09-01 11:20:00,
2015-09-01 06:25:00,66.5,65.0,29.99,SE,125,0.0,0.0,95,0.00,,,0.00,VWS V15.00,2015-09-01 11:25:00,
2015-09-01 06:30:00,66.5,65.0,29.99,SE,125,0.0,0.0,95,0.00,,,0.00,VWS V15.00,2015-09-01 11:30:00,
2015-09-01 06:35:00,66.4,64.9,29.99,SE,125,0.0,0.0,95,0.00,,,0.00,VWS V15.00,2015-09-01 11:35:00,
2015-09-01 06:40:00,66.3,64.8,29.99,SE,125,0.0,0.0,95,0.00,,,0.00,VWS V15.00,2015-09-01 11:40:00,
2015-09-01 06:45:00,66.3,64.8,29.99,SE,125,0.0,0.0,95,0.00,,,0.00,VWS V15.00,2015-09-01 11:45:00,
2015-09-01 06:50:00,66.3,64.8,29.99,SE,125,0.0,0.0,95,0.00,,,0.00,VWS V15.00,2015-09-01 11:50:00,
2015-09-01 07:00:00,66.1,64.6,29.99,SE,125,0.0,0.0,95,0.00,,,0.00,VWS V15.00,2015-09-01 12:00:00,
2015-09-01 07:05:00,66.2,64.7,29.99,SE,125,0.0,0.0,95,0.00,,,0.00,VWS V15.00,2015-09-01 12:05:00,
2015-09-01 07:15:00,66.2,64.7,30.00,SE,125,0.0,0.0,95,0.00,,,0.00,VWS V15.00,2015-09-01 12:15:00,
2015-09-01 07:20:00,66.3,64.8,30.00,SE,125,0.0,0.0,95,0.00,,,0.00,VWS V15.00,2015-09-01 12:20:00,
2015-09-01 07:25:00,66.3,64.8,30.00,SE,125,0.0,0.0,95,0.00,,,0.00,VWS V15.00,2015-09-01 12:25:00,
2015-09-01 07:30:00,66.5,65.0,30.00,SE,125,0.0,0.0,95,0.00,,,0.00,VWS V15.00,2015-09-01 12:30:00,
2015-09-01 07:35:00,66.6,65.1,30.00,SE,125,0.0,0.0,95,0.00,,,0.00,VWS V15.00,2015-09-01 12:35:00,
2015-09-01 07:40:00,66.7,65.2,30.00,SE,125,0.0,0.0,95,0.00,,,0.00,VWS V15.00,2015-09-01 12:40:00,
2015-09-01 07:45:00,66.8,65.3,30.00,SE,125,0.0,0.0,95,0.00,,,0.00,VWS V15.00,2015-09-01 12:45:00,
2015-09-01 07:50:00,67.3,65.8,30.00,SE,125,0.0,0.0,95,0.00,,,0.00,VWS V15.00,2015-09-01 12:50:00,
2015-09-01 08:00:00,67.7,66.2,30.01,SE,125,0.0,0.0,95,0.00,,,0.00,VWS V15.00,2015-09-01 13:00:00,
2015-09-01 08:05:00,68.3,66.8,30.01,SE,125,0.0,0.0,95,0.00,,,0.00,VWS V15.00,2015-09-01 13:05:00,
2015-09-01 08:10:00,68.7,67.2,30.01,SE,125,1.0,0.0,95,0.00,,,0.00,VWS V15.00,2015-09-01 13:10:00,
2015-09-01 08:20:00,70.0,68.2,30.01,SE,125,0.0,0.0,94,0.00,,,0.00,VWS V15.00,2015-09-01 13:20:00,
2015-09-01 08:25:00,70.5,68.7,30.01,SE,125,0.0,0.0,94,0.00,,,0.00,VWS V15.00,2015-09-01 13:25:00,
2015-09-01 08:30:00,71.5,69.4,30.00,SE,125,0.0,0.0,93,0.00,,,0.00,VWS V15.00,2015-09-01 13:30:00,
2015-09-01 08:35:00,72.5,69.7,30.00,SE,125,0.0,0.0,91,0.00,,,0.00,VWS V15.00,2015-09-01 13:35:00,
2015-09-01 08:40:00,73.1,70.0,30.00,SE,125,0.0,0.0,90,0.00,,,0.00,VWS V15.00,2015-09-01 13:40:00,
2015-09-01 08:45:00,73.5,70.4,30.00,SE,125,0.0,0.0,90,0.00,,,0.00,VWS V15.00,2015-09-01 13:45:00,
2015-09-01 08:50:00,74.2,70.8,30.00,SE,125,0.0,0.0,89,0.00,,,0.00,VWS V15.00,2015-09-01 13:50:00,
2015-09-01 08:55:00,75.1,71.0,30.00,SE,125,0.0,0.0,87,0.00,,,0.00,VWS V15.00,2015-09-01 13:55:00,
2015-09-01 09:00:00,75.9,70.7,30.00,SE,125,0.0,0.0,84,0.00,,,0.00,VWS V15.00,2015-09-01 14:00:00,
2015-09-01 09:10:00,77.0,71.1,30.00,SE,125,0.0,0.0,82,0.00,,,0.00,VWS V15.00,2015-09-01 14:10:00,
2015-09-01 09:15:00,77.5,71.6,30.01,SE,125,0.0,0.0,82,0.00,,,0.00,VWS V15.00,2015-09-01 14:15:00,
2015-09-01 09:20:00,78.0,70.6,30.01,SE,125,0.0,0.0,78,0.00,,,0.00,VWS V15.00,2015-09-01 14:20:00,
2015-09-01 09:25:00,78.4,70.2,30.01,SE,125,0.0,0.0,76,0.00,,,0.00,VWS V15.00,2015-09-01 14:25:00,
2015-09-01 09:30:00,78.9,70.3,30.00,SE,125,0.0,0.0,75,0.00,,,0.00,VWS V15.00,2015-09-01 14:30:00,
2015-09-01 09:35:00,79.2,69.8,30.00,SE,125,1.0,0.0,73,0.00,,,0.00,VWS V15.00,2015-09-01 14:35:00,
2015-09-01 09:40:00,79.2,70.2,30.00,SE,125,0.0,0.0,74,0.00,,,0.00,VWS V15.00,2015-09-01 14:40:00,
2015-09-01 09:45:00,79.4,68.8,30.00,SE,125,4.0,0.0,70,0.00,,,0.00,VWS V15.00,2015-09-01 14:45:00,
2015-09-01 09:50:00,79.3,68.7,30.00,SSE,166,0.0,0.0,70,0.00,,,0.00,VWS V15.00,2015-09-01 14:50:00,
2015-09-01 09:55:00,79.6,71.0,30.00,SSE,166,1.0,0.0,75,0.00,,,0.00,VWS V15.00,2015-09-01 14:55:00,
2015-09-01 10:00:00,79.8,70.0,30.00,South,175,0.0,0.0,72,0.00,,,0.00,VWS V15.00,2015-09-01 15:00:00,
2015-09-01 10:05:00,80.0,70.2,30.00,ESE,121,0.0,0.0,72,0.00,,,0.00,VWS V15.00,2015-09-01 15:05:00,
2015-09-01 10:10:00,80.1,68.2,30.00,SSE,167,4.0,0.0,67,0.00,,,0.00,VWS V15.00,2015-09-01 15:10:00,
2015-09-01 10:15:00,80.1,69.4,30.01,South,175,1.0,0.0,70,0.00,,,0.00,VWS V15.00,2015-09-01 15:15:00,
2015-09-01 10:20:00,80.3,69.2,30.01,SSE,165,2.0,0.0,69,0.00,,,0.00,VWS V15.00,2015-09-01 15:20:00,
2015-09-01 10:25:00,80.4,68.4,30.01,South,169,1.0,0.0,67,0.00,,,0.00,VWS V15.00,2015-09-01 15:25:00,
2015-09-01 10:30:00,80.4,70.1,30.01,SE,124,0.0,0.0,71,0.00,,,0.00,VWS V15.00,2015-09-01 15:30:00,
2015-09-01 10:35:00,80.7,69.2,30.01,SSW,194,0.0,0.0,68,0.00,,,0.00,VWS V15.00,2015-09-01 15:35:00,
2015-09-01 10:40:00,80.7,69.2,30.01,South,188,2.0,0.0,68,0.00,,,0.00,VWS V15.00,2015-09-01 15:40:00,
2015-09-01 10:45:00,80.7,69.6,30.01,SSE,166,0.0,0.0,69,0.00,,,0.00,VWS V15.00,2015-09-01 15:45:00,
2015-09-01 10:50:00,81.0,69.4,30.01,South,185,0.0,0.0,68,0.00,,,0.00,VWS V15.00,2015-09-01 15:50:00,
2015-09-01 10:55:00,81.4,68.5,30.01,SE,145,1.0,0.0,65,0.00,,,0.00,VWS V15.00,2015-09-01 15:55:00,
2015-09-01 11:00:00,81.5,69.1,30.02,East,99,1.0,0.0,66,0.00,,,0.00,VWS V15.00,2015-09-01 16:00:00,
2015-09-01 11:05:00,81.9,69.4,30.02,SSE,159,1.0,0.0,66,0.00,,,0.00,VWS V15.00,2015-09-01 16:05:00,
2015-09-01 11:10:00,81.8,68.9,30.02,East,99,0.0,0.0,65,0.00,,,0.00,VWS V15.00,2015-09-01 16:10:00,
2015-09-01 11:25:00,82.2,69.3,30.01,SW,236,1.0,0.0,65,0.00,,,0.00,VWS V15.00,2015-09-01 16:25:00,
2015-09-01 11:30:00,82.3,68.9,30.01,WSW,250,0.0,0.0,64,0.00,,,0.00,VWS V15.00,2015-09-01 16:30:00,
2015-09-01 11:35:00,82.3,67.5,30.01,SSE,160,0.0,0.0,61,0.00,,,0.00,VWS V15.00,2015-09-01 16:35:00,
2015-09-01 11:40:00,82.3,69.4,30.01,ENE,65,0.0,0.0,65,0.00,,,0.00,VWS V15.00,2015-09-01 16:40:00,
2015-09-01 11:45:00,82.5,68.6,30.01,South,182,0.0,0.0,63,0.00,,,0.00,VWS V15.00,2015-09-01 16:45:00,
2015-09-01 11:50:00,82.5,69.1,30.01,SSE,155,2.0,0.0,64,0.00,,,0.00,VWS V15.00,2015-09-01 16:50:00,
2015-09-01 11:55:00,82.8,70.7,30.01,SE,144,0.0,0.0,67,0.00,,,0.00,VWS V15.00,2015-09-01 16:55:00,
2015-09-01 12:00:00,83.1,69.2,30.01,ESE,120,1.0,0.0,63,0.00,,,0.00,VWS V15.00,2015-09-01 17:00:00,
2015-09-01 12:05:00,83.5,70.1,30.01,SE,144,1.0,0.0,64,0.00,,,0.00,VWS V15.00,2015-09-01 17:05:00,
2015-09-01 12:10:00,83.7,69.8,30.01,SSW,200,1.0,0.0,63,0.00,,,0.00,VWS V15.00,2015-09-01 17:10:00,
2015-09-01 12:15:00,83.4,69.5,30.00,SE,128,0.0,0.0,63,0.00,,,0.00,VWS V15.00,2015-09-01 17:15:00,
2015-09-01 12:20:00,83.4,69.9,30.00,SSE,168,3.0,0.0,64,0.00,,,0.00,VWS V15.00,2015-09-01 17:20:00,
2015-09-01 12:25:00,83.2,69.3,30.00,SSE,167,0.0,0.0,63,0.00,,,0.00,VWS V15.00,2015-09-01 17:25:00,
2015-09-01 12:35:00,83.6,69.7,30.00,SSE,150,0.0,0.0,63,0.00,,,0.00,VWS V15.00,2015-09-01 17:35:00,
2015-09-01 12:40:00,84.5,70.1,30.00,ESE,104,1.0,0.0,62,0.00,,,0.00,VWS V15.00,2015-09-01 17:40:00,
2015-09-01 12:45:00,84.3,69.9,30.00,ESE,117,0.0,0.0,62,0.00,,,0.00,VWS V15.00,2015-09-01 17:45:00,
2015-09-01 12:50:00,84.1,68.7,30.00,SSW,209,3.0,0.0,60,0.00,,,0.00,VWS V15.00,2015-09-01 17:50:00,
2015-09-01 12:55:00,84.7,69.8,30.00,South,184,0.0,0.0,61,0.00,,,0.00,VWS V15.00,2015-09-01 17:55:00,
2015-09-01 13:00:00,84.3,68.4,29.99,SSE,161,1.0,0.0,59,0.00,,,0.00,VWS V15.00,2015-09-01 18:00:00,
2015-09-01 13:05:00,83.6,69.2,29.99,ESE,105,0.0,0.0,62,0.00,,,0.00,VWS V15.00,2015-09-01 18:05:00,
2015-09-01 13:10:00,84.1,68.7,29.99,WSW,253,0.0,0.0,60,0.00,,,0.00,VWS V15.00,2015-09-01 18:10:00,
2015-09-01 13:15:00,84.2,67.3,29.99,South,182,0.0,0.0,57,0.00,,,0.00,VWS V15.00,2015-09-01 18:15:00,
2015-09-01 13:20:00,84.5,67.6,29.99,SSE,165,1.0,0.0,57,0.00,,,0.00,VWS V15.00,2015-09-01 18:20:00,
2015-09-01 13:25:00,84.9,66.4,29.99,ENE,76,4.0,0.0,54,0.00,,,0.00,VWS V15.00,2015-09-01 18:25:00,
2015-09-01 13:30:00,85.1,68.2,29.99,East,92,1.0,0.0,57,0.00,,,0.00,VWS V15.00,2015-09-01 18:30:00,
2015-09-01 13:35:00,85.4,66.9,29.99,SE,132,2.0,0.0,54,0.00,,,0.00,VWS V15.00,2015-09-01 18:35:00,
2015-09-01 13:45:00,85.9,67.9,29.98,SSE,157,0.0,0.0,55,0.00,,,0.00,VWS V15.00,2015-09-01 18:45:00,
2015-09-01 13:50:00,85.7,66.6,29.98,SW,222,0.0,0.0,53,0.00,,,0.00,VWS V15.00,2015-09-01 18:50:00,
2015-09-01 13:55:00,86.0,68.5,29.98,SSE,157,5.0,0.0,56,0.00,,,0.00,VWS V15.00,2015-09-01 18:55:00,
2015-09-01 14:00:00,85.1,65.5,29.98,SE,146,4.0,0.0,52,0.00,,,0.00,VWS V15.00,2015-09-01 19:00:00,
2015-09-01 14:05:00,85.2,68.3,29.98,SSW,200,2.0,0.0,57,0.00,,,0.00,VWS V15.00,2015-09-01 19:05:00,
2015-09-01 14:10:00,85.6,68.1,29.98,South,175,3.0,0.0,56,0.00,,,0.00,VWS V15.00,2015-09-01 19:10:00,
2015-09-01 14:15:00,86.2,68.7,29.98,SW,214,1.0,0.0,56,0.00,,,0.00,VWS V15.00,2015-09-01 19:15:00,
2015-09-01 14:20:00,86.6,67.4,29.98,SSE,163,0.0,0.0,53,0.00,,,0.00,VWS V15.00,2015-09-01 19:20:00,
2015-09-01 14:25:00,86.0,66.9,29.98,South,178,1.0,0.0,53,0.00,,,0.00,VWS V15.00,2015-09-01 19:25:00,
2015-09-01 14:30:00,85.6,68.6,29.98,NE,49,2.0,0.0,57,0.00,,,0.00,VWS V15.00,2015-09-01 19:30:00,
2015-09-01 14:35:00,85.9,68.9,29.98,ESE,109,2.0,0.0,57,0.00,,,0.00,VWS V15.00,2015-09-01 19:35:00,
2015-09-01 14:40:00,85.9,66.2,29.98,SSE,152,1.0,0.0,52,0.00,,,0.00,VWS V15.00,2015-09-01 19:40:00,
2015-09-01 14:45:00,85.6,67.6,29.97,SSE,153,0.0,0.0,55,0.00,,,0.00,VWS V15.00,2015-09-01 19:45:00,
2015-09-01 14:50:00,86.1,68.6,29.97,ESE,115,4.0,0.0,56,0.00,,,0.00,VWS V15.00,2015-09-01 19:50:00,
2015-09-01 14:55:00,86.5,66.8,29.97,East,95,0.0,0.0,52,0.00,,,0.00,VWS V15.00,2015-09-01 19:55:00,
2015-09-01 15:00:00,85.9,66.2,29.97,South,171,1.0,0.0,52,0.00,,,0.00,VWS V15.00,2015-09-01 20:00:00,
2015-09-01 15:05:00,86.2,68.2,29.97,SSE,162,0.0,0.0,55,0.00,,,0.00,VWS V15.00,2015-09-01 20:05:00,
2015-09-01 15:10:00,86.4,67.8,29.97,East,92,0.0,0.0,54,0.00,,,0.00,VWS V15.00,2015-09-01 20:10:00,
2015-09-01 15:15:00,86.9,65.5,29.97,SSW,197,2.0,0.0,49,0.00,,,0.00,VWS V15.00,2015-09-01 20:15:00,
2015-09-01 15:20:00,87.1,68.4,29.97,SSW,196,0.0,0.0,54,0.00,,,0.00,VWS V15.00,2015-09-01 20:20:00,
2015-09-01 15:25:00,87.4,68.7,29.97,East,98,0.0,0.0,54,0.00,,,0.00,VWS V15.00,2015-09-01 20:25:00,
2015-09-01 15:30:00,87.7,69.0,29.96,East,98,0.0,0.0,54,0.00,,,0.00,VWS V15.00,2015-09-01 20:30:00,
2015-09-01 15:35:00,86.8,67.1,29.96,SSE,161,2.0,0.0,52,0.00,,,0.00,VWS V15.00,2015-09-01 20:35:00,
2015-09-01 15:40:00,86.3,66.6,29.96,SE,130,0.0,0.0,52,0.00,,,0.00,VWS V15.00,2015-09-01 20:40:00,
2015-09-01 15:45:00,85.6,67.6,29.96,ESE,104,0.0,0.0,55,0.00,,,0.00,VWS V15.00,2015-09-01 20:45:00,
2015-09-01 15:50:00,85.9,67.9,29.96,ESE,103,0.0,0.0,55,0.00,,,0.00,VWS V15.00,2015-09-01 20:50:00,
2015-09-01 15:55:00,86.8,69.2,29.96,South,183,0.0,0.0,56,0.00,,,0.00,VWS V15.00,2015-09-01 20:55:00,
2015-09-01 16:00:00,87.3,67.5,29.95,South,190,0.0,0.0,52,0.00,,,0.00,VWS V15.00,2015-09-01 21:00:00,
2015-09-01 16:05:00,87.6,68.4,29.95,SSE,167,0.0,0.0,53,0.00,,,0.00,VWS V15.00,2015-09-01 21:05:00,
2015-09-01 16:10:00,87.2,68.5,29.95,SSE,164,0.0,0.0,54,0.00,,,0.00,VWS V15.00,2015-09-01 21:10:00,
2015-09-01 16:15:00,86.0,66.9,29.96,SE,137,1.0,0.0,53,0.00,,,0.00,VWS V15.00,2015-09-01 21:15:00,
2015-09-01 16:20:00,86.1,68.1,29.96,ENE,71,0.0,0.0,55,0.00,,,0.00,VWS V15.00,2015-09-01 21:20:00,
2015-09-01 16:25:00,86.6,67.4,29.96,ENE,73,1.0,0.0,53,0.00,,,0.00,VWS V15.00,2015-09-01 21:25:00,
2015-09-01 16:30:00,86.4,66.7,29.95,SE,126,0.0,0.0,52,0.00,,,0.00,VWS V15.00,2015-09-01 21:30:00,
2015-09-01 16:35:00,86.0,66.9,29.95,SSE,156,0.0,0.0,53,0.00,,,0.00,VWS V15.00,2015-09-01 21:35:00,
2015-09-01 16:40:00,85.6,67.1,29.95,SSE,159,0.0,0.0,54,0.00,,,0.00,VWS V15.00,2015-09-01 21:40:00,
2015-09-01 16:45:00,85.8,67.2,29.95,South,174,1.0,0.0,54,0.00,,,0.00,VWS V15.00,2015-09-01 21:45:00,
2015-09-01 16:50:00,86.0,66.9,29.95,East,99,0.0,0.0,53,0.00,,,0.00,VWS V15.00,2015-09-01 21:50:00,
2015-09-01 16:55:00,86.3,67.2,29.95,South,190,2.0,0.0,53,0.00,,,0.00,VWS V15.00,2015-09-01 21:55:00,
2015-09-01 17:00:00,86.1,68.1,29.95,South,186,0.0,0.0,55,0.00,,,0.00,VWS V15.00,2015-09-01 22:00:00,
2015-09-01 17:05:00,85.9,67.9,29.95,South,175,1.0,0.0,55,0.00,,,0.00,VWS V15.00,2015-09-01 22:05:00,
2015-09-01 17:10:00,85.7,66.1,29.95,SW,218,5.0,0.0,52,0.00,,,0.00,VWS V15.00,2015-09-01 22:10:00,
2015-09-01 17:15:00,85.6,68.1,29.95,ESE,120,0.0,0.0,56,0.00,,,0.00,VWS V15.00,2015-09-01 22:15:00,
2015-09-01 17:20:00,85.6,68.1,29.95,SE,130,0.0,0.0,56,0.00,,,0.00,VWS V15.00,2015-09-01 22:20:00,
2015-09-01 17:25:00,85.5,67.5,29.95,ESE,119,1.0,0.0,55,0.00,,,0.00,VWS V15.00,2015-09-01 22:25:00,
2015-09-01 17:30:00,85.3,67.3,29.95,SE,143,0.0,0.0,55,0.00,,,0.00,VWS V15.00,2015-09-01 22:30:00,
2015-09-01 17:35:00,85.1,67.7,29.95,SE,138,0.0,0.0,56,0.00,,,0.00,VWS V15.00,2015-09-01 22:35:00,
2015-09-01 17:40:00,84.8,66.8,29.95,SE,125,1.0,0.0,55,0.00,,,0.00,VWS V15.00,2015-09-01 22:40:00,
2015-09-01 17:45:00,84.7,67.8,29.95,ESE,122,0.0,0.0,57,0.00,,,0.00,VWS V15.00,2015-09-01 22:45:00,
2015-09-01 17:50:00,84.7,67.3,29.95,South,190,0.0,0.0,56,0.00,,,0.00,VWS V15.00,2015-09-01 22:50:00,
2015-09-01 17:55:00,84.6,66.7,29.95,SE,124,0.0,0.0,55,0.00,,,0.00,VWS V15.00,2015-09-01 22:55:00,
2015-09-01 18:00:00,84.4,67.0,29.95,SE,125,1.0,0.0,56,0.00,,,0.00,VWS V15.00,2015-09-01 23:00:00,
2015-09-01 18:05:00,84.3,67.4,29.95,SE,125,0.0,0.0,57,0.00,,,0.00,VWS V15.00,2015-09-01 23:05:00,
2015-09-01 18:10:00,84.0,66.6,29.95,SSE,159,0.0,0.0,56,0.00,,,0.00,VWS V15.00,2015-09-01 23:10:00,
2015-09-01 18:15:00,83.8,67.0,29.95,SSE,158,0.0,0.0,57,0.00,,,0.00,VWS V15.00,2015-09-01 23:15:00,
2015-09-01 18:20:00,83.6,67.3,29.95,SSE,157,0.0,0.0,58,0.00,,,0.00,VWS V15.00,2015-09-01 23:20:00,
2015-09-01 18:25:00,83.4,67.1,29.95,SSE,162,0.0,0.0,58,0.00,,,0.00,VWS V15.00,2015-09-01 23:25:00,
2015-09-01 18:30:00,83.2,66.9,29.95,SSE,161,0.0,0.0,58,0.00,,,0.00,VWS V15.00,2015-09-01 23:30:00,
2015-09-01 18:35:00,82.9,66.6,29.95,ESE,121,0.0,0.0,58,0.00,,,0.00,VWS V15.00,2015-09-01 23:35:00,
2015-09-01 18:40:00,82.7,67.4,29.95,SSW,204,1.0,0.0,60,0.00,,,0.00,VWS V15.00,2015-09-01 23:40:00,
2015-09-01 18:45:00,82.5,66.2,29.95,SSW,199,0.0,0.0,58,0.00,,,0.00,VWS V15.00,2015-09-01 23:45:00,
2015-09-01 18:50:00,82.3,67.0,29.95,SE,126,0.0,0.0,60,0.00,,,0.00,VWS V15.00,2015-09-01 23:50:00,
2015-09-01 18:55:00,82.2,67.9,29.95,SE,132,0.0,0.0,62,0.00,,,0.00,VWS V15.00,2015-09-01 23:55:00,
2015-09-01 19:00:00,81.8,68.0,29.95,SE,132,0.0,0.0,63,0.00,,,0.00,VWS V15.00,2015-09-02 00:00:00,
2015-09-01 19:05:00,81.4,67.1,29.95,SE,132,0.0,0.0,62,0.00,,,0.00,VWS V15.00,2015-09-02 00:05:00,
2015-09-01 19:10:00,81.1,68.2,29.95,SE,132,0.0,0.0,65,0.00,,,0.00,VWS V15.00,2015-09-02 00:10:00,
2015-09-01 19:15:00,80.7,69.6,29.95,SE,132,0.0,0.0,69,0.00,,,0.00,VWS V15.00,2015-09-02 00:15:00,
2015-09-01 19:20:00,80.1,69.4,29.95,SE,132,0.0,0.0,70,0.00,,,0.00,VWS V15.00,2015-09-02 00:20:00,
2015-09-01 19:25:00,79.4,69.6,29.95,SE,132,0.0,0.0,72,0.00,,,0.00,VWS V15.00,2015-09-02 00:25:00,
2015-09-01 19:30:00,78.8,69.4,29.95,SE,132,0.0,0.0,73,0.00,,,0.00,VWS V15.00,2015-09-02 00:30:00,
2015-09-01 19:35:00,78.1,69.5,29.95,SE,132,0.0,0.0,75,0.00,,,0.00,VWS V15.00,2015-09-02 00:35:00,
2015-09-01 19:40:00,77.5,69.0,29.95,SE,132,0.0,0.0,75,0.00,,,0.00,VWS V15.00,2015-09-02 00:40:00,
2015-09-01 19:45:00,76.9,68.8,29.96,SE,132,0.0,0.0,76,0.00,,,0.00,VWS V15.00,2015-09-02 00:45:00,
2015-09-01 19:50:00,76.4,68.7,29.96,SE,132,0.0,0.0,77,0.00,,,0.00,VWS V15.00,2015-09-02 00:50:00,
2015-09-01 19:55:00,75.9,68.6,29.96,SE,132,0.0,0.0,78,0.00,,,0.00,VWS V15.00,2015-09-02 00:55:00,
2015-09-01 20:00:00,75.4,68.4,29.96,SE,132,0.0,0.0,79,0.00,,,0.00,VWS V15.00,2015-09-02 01:00:00,
2015-09-01 20:05:00,74.9,68.3,29.96,SE,132,0.0,0.0,80,0.00,,,0.00,VWS V15.00,2015-09-02 01:05:00,